This is the latest recevied weather packets stored in our database for station/object WC4PEM-7. If no packets are shown the sender has not sent any weather packets the latest 10 day(s).
| Time | Temp. | Humidity | Pressure | Rain* | Wind** | Luminosity | Snow |
|---|---|---|---|---|---|---|---|
| 1777732126 | 26.67° C | 79% | 1011.4 hPa | 0 mm | - | - | - |
| 1777731826 | 26.67° C | 79% | 1011.5 hPa | 0 mm | - | - | - |
| 1777731526 | 26.67° C | 80% | 1011.5 hPa | 0 mm | - | - | - |
| 1777731226 | 26.11° C | 80% | 1011.4 hPa | 0 mm | - | - | - |
| 1777730926 | 26.11° C | 81% | 1011.3 hPa | 0 mm | - | - | - |
| 1777730627 | 26.11° C | 82% | 1011.4 hPa | 0 mm | - | - | - |
| 1777730327 | 25.56° C | 83% | 1011.3 hPa | 0 mm | - | - | - |
| 1777730027 | 25.56° C | 83% | 1011.3 hPa | 0 mm | - | - | - |
| 1777729727 | 25° C | 83% | 1011.2 hPa | 0 mm | - | - | - |
| 1777729427 | 25° C | 83% | 1011.3 hPa | 0 mm | - | - | - |
| 1777729127 | 25° C | 83% | 1011.1 hPa | 0 mm | - | - | - |
| 1777728827 | 25° C | 83% | 1011 hPa | 0 mm | - | - | - |
| 1777728527 | 25° C | 83% | 1011 hPa | 0 mm | - | - | - |
| 1777728227 | 24.44° C | 82% | 1010.9 hPa | 0 mm | - | - | - |
| 1777728051 | 24.44° C | 83% | 1010.5 hPa | 0 mm | - | - | - |
| 1777727927 | 24.44° C | 83% | 1010.8 hPa | 0 mm | - | - | - |
| 1777727627 | 24.44° C | 83% | 1010.5 hPa | 0 mm | - | - | - |
| 1777727327 | 23.89° C | 84% | 1010.5 hPa | 0 mm | - | - | - |
| 1777727117 | 23.33° C | 86% | 1010.5 hPa | 0 mm | - | - | - |
| 1777727027 | 23.89° C | 84% | 1010.5 hPa | 0 mm | - | - | - |
| 1777726727 | 23.33° C | 86% | 1010.5 hPa | 0 mm | - | - | - |
| 1777726427 | 23.33° C | 86% | 1010.6 hPa | 0 mm | - | - | - |
| 1777726127 | 23.33° C | 86% | 1010.5 hPa | 0 mm | - | - | - |
| 1777725827 | 22.78° C | 87% | 1010.6 hPa | 0 mm | - | - | - |
| 1777725527 | 22.78° C | 89% | 1010.5 hPa | 0 mm | - | - | - |
* Rain latest hour (hover to see other rain measurements)
** Current wind speed in m/s (hover to see current wind gust speed)